[[{"header":{"parameterUnit":"m.s-1","parameterCategory":1,"la1":30.2991,"la2":30.254,"lo1":-89.0895,"lo2":-89.0444,"dy":0.0017,"dx":0.0017,"nx":28,"ny":28,"refTime":"2025-11-09T09:00:00:Z","depth":0,"parameterNumber":2,"parameterNumberName":"U-component_of_WINDS"},"data":[0,0,0,0,0,0,0,0,0,0,0,0,0,0,0,0,0,0,0,0,0,0,0,0,0,0,0,0,0,0,0,0,0,0,0,0,0,0,0,0,0,0,0,0,0,0,0,0,0,0,0,0,0,0,0,0,0,0,2.0459,2.0459,0,2.0468,2.0468,2.0468,2.0463,2.0463,2.0463,2.0462,2.0469,2.047,2.047,0,0,0,0,0,0,0,0,0,0,0,0,0,2.0438,2.0438,2.0459,2.046,2.046,2.0468,2.0468,2.0468,2.0463,2.0463,2.0463,2.0462,2.0469,2.047,2.047,0,0,0,0,0,0,0,0,0,0,0,0,0,2.0447,2.0439,2.0459,2.0458,2.0458,2.0468,2.0468,2.0468,2.0463,2.0463,2.0462,2.0462,2.0469,2.047,2.047,2.0481,0,0,2.0472,2.0472,0,0,0,0,0,0,0,0,2.0446,2.0448,2.0458,2.0458,2.0458,2.0464,2.0463,2.0473,2.0463,2.0461,2.0462,2.0462,2.0468,2.0468,2.0471,2.0481,2.0482,2.0472,2.0472,2.0473,2.0473,0,0,0,0,0,0,0,2.0446,2.0447,2.0463,2.0458,2.0458,2.0457,2.0458,2.0465,2.0466,2.0461,2.0461,2.0462,2.0468,2.047,2.0471,2.0482,2.0472,2.0473,2.0473,2.0473,2.0503,2.0504,0,0,0,0,0,0,2.0445,2.0447,2.0462,2.0463,2.0451,2.0458,2.0459,2.0463,2.0466,2.0466,2.0463,2.0462,2.0469,2.047,2.0471,2.0485,2.0473,2.0473,2.0474,2.0503,2.0503,2.0504,0,0,0,0,0,0,2.0445,2.0447,2.0462,2.0455,2.0457,2.0458,2.0463,2.0463,2.0465,2.0467,2.0467,2.0465,2.0469,2.047,2.0479,2.0485,2.0474,2.0474,2.0502,2.0503,2.0504,2.0512,0,0,0,0,0,0,2.0444,2.0447,2.0451,2.0455,2.0457,2.047,2.0463,2.0463,2.0467,2.0466,2.0469,2.047,2.0469,2.0478,2.048,2.0486,2.0475,2.0502,2.0503,2.0504,2.0511,2.0513,2.0514,0,0,0,0,0,2.0444,2.0452,2.0451,2.0453,2.0462,2.047,2.0472,2.0471,2.0467,2.0471,2.0473,2.0469,2.0484,2.0479,2.0481,2.0487,2.0501,2.0502,2.0503,2.051,2.0512,2.0514,0,0,0,0,0,0,2.0447,2.0453,2.0451,2.0462,2.0466,2.047,2.0475,2.0473,2.0478,2.0477,2.0476,2.0477,2.0486,2.0487,2.0482,2.0498,2.0492,2.0494,2.0497,2.0499,2.05,2.0499,2.0475,0,0,0,0,0,2.045,2.0456,2.046,2.0469,2.0471,2.0473,2.0476,2.0476,2.048,2.0481,2.0483,2.0487,2.0492,2.0496,2.0501,2.0512,2.0512,2.0517,2.0518,2.052,2.052,2.0527,2.0529,2.0507,2.0507,2.0507,0,0,2.0454,2.0458,2.0461,2.047,2.0473,2.0479,2.0474,2.0481,2.0486,2.0482,2.0491,2.0492,2.0496,2.0507,2.0511,2.0508,2.0527,2.0521,2.0522,2.0522,2.0528,2.053,2.0532,2.0508,2.0508,2.0508,0,0,2.0465,2.0468,2.0476,2.048,2.0485,2.0487,2.0489,2.0493,2.0495,2.0504,2.0501,2.0507,2.0517,2.052,2.0523,2.0538,2.0535,2.0539,2.0547,2.0553,2.0555,2.0556,2.0562,2.0563,2.054,2.054,2.054,0,2.0469,2.0479,2.048,2.0488,2.0492,2.049,2.0498,2.0502,2.0508,2.0511,2.0508,2.0521,2.0523,2.0534,2.0538,2.0541,2.0543,2.0538,2.0555,2.0556,2.0558,2.0563,2.0565,2.0541,2.0541,2.0541,2.0541,0,2.0484,2.0492,2.0497,2.0505,2.051,2.0517,2.052,2.0524,2.0524,2.0526,2.0536,2.0539,2.0546,2.0548,2.0548,2.056,2.0558,2.0555,2.0548,2.056,2.0565,2.0567,2.0542,2.0541,2.0541,2.0541,0,0,2.0496,2.0506,2.0508,2.0512,2.0518,2.0524,2.0532,2.0539,2.0544,2.0549,2.0555,2.0565,2.0562,2.0566,2.0566,2.0571,2.0583,2.0568,2.0568,2.057,2.0597,2.0599,2.0601,2.0582,2.0582,2.0583,2.0597,0,2.0507,2.0522,2.0524,2.0537,2.0544,2.0544,2.0551,2.0556,2.0558,2.0565,2.0567,2.0574,2.057,2.0572,2.0578,2.0581,2.0588,2.058,2.0588,2.0588,2.0586,2.0604,2.0605,2.0618,2.0599,2.0599,2.0599,0,2.0522,2.0529,2.0543,2.055,2.0553,2.0559,2.0567,2.0573,2.0579,2.058,2.0585,2.0585,2.0594,2.0588,2.06,2.0594,2.0598,2.06,2.06,2.06,2.0594,2.0604,2.0622,2.0624,2.0602,2.0602,2.0602,0,2.0529,2.0542,2.0552,2.0555,2.0564,2.0569,2.0572,2.0578,2.0583,2.0589,2.0593,2.06,2.0604,2.0609,2.0611,2.0607,2.0623,2.0617,2.0624,2.0624,2.0626,2.0626,2.0646,2.063,2.063,2.063,2.063,0,2.0541,2.0549,2.0555,2.0561,2.0571,2.0574,2.0584,2.0587,2.0593,2.06,2.06,2.0606,2.0609,2.0616,2.0617,2.0627,2.0629,2.063,2.063,2.063,2.063,2.0631,2.063,2.0631,2.0631,2.063,2.063,0,2.055,2.0554,2.0565,2.0573,2.0576,2.0583,2.0589,2.0595,2.0599,2.0608,2.061,2.0615,2.0623,2.0626,2.0635,2.0637,2.0648,2.0648,2.0646,2.0646,2.0652,2.0652,2.0673,2.0676,2.0659,2.0659,2.066,0,2.0556,2.0563,2.0573,2.0578,2.0582,2.059,2.0595,2.0599,2.0604,2.0613,2.0618,2.0627,2.0633,2.0647,2.0651,2.0659,2.0658,2.0665,2.0659,2.0659,2.0658,2.0657,2.0658,2.0666,2.0666,2.0666,2.0666,0,2.0568,2.0571,2.0579,2.0588,2.0594,2.0601,2.0608,2.0612,2.0617,2.0623,2.0632,2.0638,2.0649,2.0657,2.0665,2.0669,2.0668,2.0669,2.0671,2.0669,2.0668,2.0669,2.0649,2.0668,2.0668,2.0667,2.0667,2.0667,2.0576,2.0583,2.0591,2.06,2.0606,2.0612,2.0619,2.0624,2.0632,2.0641,2.0643,2.0653,2.066,2.0671,2.0676,2.0683,2.0681,2.0684,2.0684,2.0685,2.0685,2.0668,2.0685,2.0685,2.0685,2.0685,2.0685,0,2.0588,2.0594,2.0602,2.0612,2.062,2.062,2.0628,2.0634,2.0643,2.065,2.0657,2.0668,2.0677,2.0683,2.0691,2.0697,2.0697,2.0699,2.0698,2.0699,2.0687,2.0684,2.0699,2.0699,2.0699,2.0699,2.0699,2.0699,2.0595,2.0606,2.0609,2.0624,2.0629,2.0639,2.0644,2.0651,2.0656,2.0669,2.0676,2.0681,2.0687,2.0697,2.0705,2.0706,2.0709,2.0712,2.0713,2.0701,2.0699,2.0698,2.0696,2.0712,2.0712,2.0724,2.0724,2.0724]},{"header":{"parameterUnit":"m.s-1","parameterCategory":1,"la1":30.2991,"la2":30.254,"lo1":-89.0895,"lo2":-89.0444,"dy":0.0017,"dx":0.0017,"nx":28,"ny":28,"refTime":"2025-11-09T09:00:00:Z","depth":0,"parameterNumber":3,"parameterNumberName":"V-component_of_WINDS"},"data":[0,0,0,0,0,0,0,0,0,0,0,0,0,0,0,0,0,0,0,0,0,0,0,0,0,0,0,0,0,0,0,0,0,0,0,0,0,0,0,0,0,0,0,0,0,0,0,0,0,0,0,0,0,0,0,0,0,0,-9.8893,-9.8895,0,-9.9068,-9.907,-9.9072,-9.8956,-9.8951,-9.8946,-9.8941,-9.9113,-9.9122,-9.9131,0,0,0,0,0,0,0,0,0,0,0,0,0,-9.8451,-9.8459,-9.8892,-9.8895,-9.8897,-9.9068,-9.907,-9.9073,-9.8957,-9.8951,-9.8945,-9.8938,-9.911,-9.9121,-9.9132,0,0,0,0,0,0,0,0,0,0,0,0,0,-9.8636,-9.8462,-9.8892,-9.886,-9.8859,-9.9067,-9.907,-9.9073,-9.8959,-9.8951,-9.8943,-9.8935,-9.9106,-9.912,-9.9134,-9.9381,0,0,-9.9177,-9.9184,0,0,0,0,0,0,0,0,-9.8626,-9.8652,-9.8863,-9.8863,-9.8862,-9.8982,-9.8977,-9.9176,-9.8961,-9.8921,-9.8941,-9.8932,-9.9075,-9.9092,-9.9142,-9.9389,-9.9396,-9.9179,-9.9187,-9.9193,-9.9197,0,0,0,0,0,0,0,-9.8613,-9.8644,-9.8962,-9.8866,-9.8865,-9.8835,-9.8852,-9.9015,-9.904,-9.8924,-9.8916,-9.8938,-9.9073,-9.9128,-9.9145,-9.9399,-9.9178,-9.9191,-9.92,-9.9205,-9.9858,-9.9867,0,0,0,0,0,0,-9.8604,-9.8634,-9.8956,-9.8967,-9.8722,-9.8849,-9.8869,-9.8952,-9.9038,-9.9044,-9.8945,-9.8932,-9.9108,-9.9128,-9.915,-9.9447,-9.9193,-9.9207,-9.9215,-9.985,-9.986,-9.987,0,0,0,0,0,0,-9.8595,-9.8634,-9.8949,-9.8799,-9.8836,-9.8865,-9.8959,-9.8959,-9.9014,-9.9054,-9.9058,-9.8997,-9.9102,-9.913,-9.9325,-9.9451,-9.9213,-9.9226,-9.9839,-9.9853,-9.9865,-10.004,0,0,0,0,0,0,-9.8582,-9.8631,-9.8727,-9.8802,-9.8845,-9.9124,-9.8967,-9.8968,-9.904,-9.9025,-9.9104,-9.9109,-9.9098,-9.9305,-9.934,-9.9466,-9.9237,-9.9828,-9.9845,-9.9861,-10.0023,-10.0058,-10.0087,0,0,0,0,0,-9.8567,-9.8767,-9.8732,-9.8772,-9.8966,-9.9131,-9.9155,-9.9141,-9.9051,-9.9146,-9.9172,-9.9107,-9.9432,-9.9326,-9.9364,-9.9497,-9.982,-9.9841,-9.986,-10.0009,-10.0051,-10.0087,0,0,0,0,0,0,-9.8702,-9.8776,-9.8738,-9.8969,-9.9045,-9.9111,-9.9231,-9.9186,-9.9287,-9.9269,-9.9244,-9.9263,-9.9467,-9.9501,-9.9382,-9.9741,-9.9611,-9.964,-9.9712,-9.9752,-9.9783,-9.9771,-9.9249,0,0,0,0,0,-9.876,-9.8891,-9.8946,-9.9144,-9.9185,-9.9202,-9.9273,-9.9256,-9.9333,-9.9364,-9.9404,-9.9479,-9.9598,-9.9676,-9.9788,-10.0027,-10.0043,-10.0138,-10.017,-10.0196,-10.022,-10.0351,-10.0394,-9.9935,-9.9935,-9.9934,0,0,-9.8878,-9.8935,-9.9018,-9.9173,-9.923,-9.9364,-9.923,-9.9377,-9.9476,-9.9385,-9.9573,-9.9605,-9.9687,-9.9906,-10.0004,-9.994,-10.0351,-10.0221,-10.0241,-10.0252,-10.0375,-10.0419,-10.0457,-9.9948,-9.9946,-9.9944,0,0,-9.9163,-9.9219,-9.9391,-9.9452,-9.9541,-9.9552,-9.9593,-9.9667,-9.9686,-9.9875,-9.9811,-9.9926,-10.0131,-10.0193,-10.0251,-10.0562,-10.0505,-10.0598,-10.0765,-10.0892,-10.0929,-10.0961,-10.1072,-10.1112,-10.0623,-10.0623,-10.0624,0,-9.9298,-9.9501,-9.9484,-9.9638,-9.9708,-9.9636,-9.9809,-9.9867,-9.9987,-10.0037,-9.9964,-10.0222,-10.0271,-10.0504,-10.0581,-10.063,-10.0675,-10.0589,-10.0925,-10.0957,-10.0987,-10.1093,-10.1135,-10.0634,-10.0633,-10.0632,-10.0631,0,-9.9663,-9.9804,-9.9932,-10.0054,-10.0138,-10.03,-10.0307,-10.0394,-10.037,-10.0388,-10.058,-10.0638,-10.0761,-10.0814,-10.0791,-10.1045,-10.1003,-10.0929,-10.0798,-10.1042,-10.1141,-10.1181,-10.065,-10.0646,-10.0643,-10.064,0,0,-10.0037,-10.015,-10.0198,-10.0253,-10.0347,-10.0455,-10.0613,-10.0736,-10.0812,-10.0897,-10.1029,-10.1206,-10.1138,-10.1204,-10.1187,-10.1298,-10.1542,-10.121,-10.1212,-10.1271,-10.1826,-10.1883,-10.193,-10.1505,-10.1513,-10.1519,-10.182,0,-10.0329,-10.0609,-10.06,-10.0861,-10.0991,-10.0925,-10.1063,-10.1135,-10.1156,-10.1267,-10.1289,-10.1415,-10.1316,-10.1356,-10.1464,-10.149,-10.1654,-10.1468,-10.1627,-10.1633,-10.161,-10.1982,-10.2041,-10.2322,-10.1858,-10.1865,-10.187,0,-10.0706,-10.0808,-10.1083,-10.116,-10.1214,-10.1339,-10.1452,-10.156,-10.164,-10.1647,-10.1723,-10.1688,-10.1847,-10.1712,-10.1931,-10.1805,-10.1869,-10.1892,-10.1902,-10.1917,-10.1766,-10.2007,-10.2411,-10.2454,-10.1931,-10.1926,-10.1921,0,-10.0953,-10.1159,-10.135,-10.1399,-10.1493,-10.1583,-10.1626,-10.1698,-10.1773,-10.187,-10.1919,-10.2033,-10.2095,-10.2183,-10.2179,-10.2082,-10.2401,-10.2266,-10.2411,-10.2411,-10.2481,-10.2477,-10.2903,-10.2522,-10.2521,-10.2521,-10.252,0,-10.128,-10.1451,-10.1463,-10.1581,-10.1771,-10.1757,-10.1944,-10.1977,-10.2043,-10.2164,-10.2112,-10.2227,-10.2215,-10.233,-10.2328,-10.251,-10.2537,-10.2547,-10.2544,-10.2552,-10.2552,-10.2594,-10.2575,-10.2532,-10.2529,-10.2527,-10.2525,0,-10.1588,-10.1603,-10.1808,-10.1881,-10.1904,-10.204,-10.2102,-10.2213,-10.223,-10.2385,-10.242,-10.2446,-10.2579,-10.2585,-10.2736,-10.2734,-10.2957,-10.2931,-10.2931,-10.2927,-10.3072,-10.3058,-10.354,-10.3603,-10.3181,-10.3185,-10.3188,0,-10.1796,-10.1926,-10.2015,-10.2095,-10.2144,-10.2272,-10.235,-10.2341,-10.2424,-10.2526,-10.2625,-10.2753,-10.2856,-10.3072,-10.3103,-10.3219,-10.3196,-10.3357,-10.3213,-10.3218,-10.32,-10.3193,-10.3206,-10.3385,-10.339,-10.3394,-10.3397,0,-10.2163,-10.2165,-10.2281,-10.24,-10.2495,-10.2588,-10.2673,-10.2741,-10.2742,-10.2837,-10.2975,-10.3055,-10.3212,-10.3341,-10.3454,-10.3494,-10.3447,-10.3442,-10.3482,-10.3492,-10.3487,-10.3493,-10.3009,-10.3431,-10.3428,-10.3425,-10.3423,-10.3422,-10.2428,-10.2542,-10.2623,-10.2754,-10.2818,-10.2901,-10.301,-10.3042,-10.3157,-10.3287,-10.3274,-10.3427,-10.3503,-10.3651,-10.3701,-10.3819,-10.3763,-10.3821,-10.3835,-10.385,-10.3866,-10.3468,-10.3839,-10.3838,-10.3837,-10.3837,-10.3836,0,-10.2794,-10.2844,-10.2965,-10.3088,-10.3191,-10.314,-10.3233,-10.3321,-10.3458,-10.3534,-10.3638,-10.3796,-10.3921,-10.3963,-10.4083,-10.417,-10.4151,-10.4202,-10.4195,-10.4206,-10.3909,-10.3863,-10.4215,-10.4215,-10.4215,-10.4215,-10.4215,-10.4215,-10.2997,-10.3188,-10.3199,-10.3421,-10.3468,-10.362,-10.3678,-10.3753,-10.3814,-10.3995,-10.41,-10.4127,-10.419,-10.4315,-10.4427,-10.4435,-10.4482,-10.4543,-10.4543,-10.4264,-10.4226,-10.419,-10.4147,-10.4553,-10.4554,-10.483,-10.4832,-10.4834]}]]